Air Sicilia Virtual Airways - Route

Air Sicilia Virtual Airways - SIC039D

( IT ) LIEE - 09:30
Cagliari Elmas Airport
CAGLIARI ( CAG )
plane_to ( IT ) LIRA - 10:50
Ciampino Airport
ROMA ( CIA )

AIRPORT NEAR NAVIGATION AIDS

Type Name Frequency
VOR-DME Cagliari 113400 KHZ
NDB Cagliari 371 KHZ

METAR / TAF
LIEE 211720Z 31006KT CAVOK 21/19 Q1013
LIEE 211100Z 2112/2212 16010KT 9999 SCT030 TEMPO 2112/2118 4000 TSRA BECMG 2118/2120 VRB04KT

RUNWAY INFORMATION

Runway Runway length Runway width Runway elevation Runway displaced threshold Runway heading
14 9196 148 9 0 138
32 9196 148 4 0 318

AIRPORT FREQUENCIES

Type Name Frequency
APP CAGLIARI A 118.75 MHZ
GND Elmas GND 125.425 MHZ
MISC SAR 123.1 MHZ
TWR TWR 120.6 MHZ

AIRPORT NEAR NAVIGATION AIDS

Type Name Frequency
NDB Ciampino 412 KHZ
VOR-DME Roma 110800 KHZ

METAR / TAF
LIRA 211720Z 02006KT 9999 SCT070 24/19 Q1014
LIRA 211100Z 2112/2212 24010KT 9999 SCT030 TEMPO 2114/2117 4000 TSRA BECMG 2118/2120 VRB04KT

RUNWAY INFORMATION

Runway Runway length Runway width Runway elevation Runway displaced threshold Runway heading
15 7242 154 341 0 152.7
33 7242 154 427 0 332.7

AIRPORT FREQUENCIES

Type Name Frequency
ARR ROMA ARR 119.2 MHZ
CLD CLNC DEL 119.4 MHZ
DIR ROMA DIREC 119.2 MHZ
GND GND 121.75 MHZ
TWR TWR 120.5 MHZ

Flightplan

LEDRO M126 ESINO

Air Sicilia Virtual Airways Fleets

AVAILABLE AIRCRAFTS for route at this time in Cagliari Elmas Airport
B738 - Boeing 737-800 NGX
( US ) BOEING

Aircraft in fleet: 1

222.72 NM

Distance in nautical miles.

€ 50,00

Ticket price for this flight.

0.55 h.

Estimated flight time.



07-08-2018
Aerosoft Professional Flight Planner PFPX

PFPX - Professional Flight Planner X - è un nuovo ed innovativo strumento di pianificazione del volo sviluppato da piloti e dispatcher del mondo reale. È un'aggiunta preziosa e realistica alla tua esperienza di simulaz ....


19-07-2018
Aerosoft Oslo X

L'Aeroporto di Oslo-Gardermoen (IATA: OSL, ICAO: ENGM) è il principale aeroporto norvegese e il 19° in Europa, è situato vicino alla cittadina di Ullensaker nella contea di Akershus e serve la capitale Oslo. Ha sostit ....


21-06-2018
Aerosoft Malpensa Professional P3Dv4

L'Aeroporto di Milano-Malpensa (IATA: MXP, ICAO: LIMC) è un aeroporto italiano situato nella provincia di Varese in Lombardia, ma considerato come il principale aeroporto di Milano.

È il secondo aeroporto ital ....


06-06-2018
1° Raduno Air Sicilia Virtual - parla il C.E.O.

Grande successo per il 1° Raduno di Compagnia dell'Air Sicilia Virtual, che ha visto i membri della Crew presenti il 4 giugno 2018 a Thiene ( VI ) , cimentarsi dal vivo con le reali ....


24-05-2018
Aerosoft Airport Rome XP

Tra le nostre recensioni non poteva mancare certo la nuova uscita Aerosoft per X-Plane, stiamo parlando di Airport Rome XP, finalmente un Add-on pay completo dell'Aeroporto di Roma Fiumicino per gli utilizzatori del simu ....